User: anonymous   Login
Location: Unspecified
(0.0000°N, 0.0000°E)
Time: 09:21:54
(UTC+00:00)
Language:

FORMOSAT 3A - Orbit

View from above orbital plane
View from above orbital plane
View from above satellite
View from above satellite

Ground track
Ground track

The orbit data is extracted from the following two-line orbital elements,

1 29047U 06011A   19345.78284408 +.00000017 +00000-0 +22883-4 0  9998
2 29047 071.9773 135.0662 0049713 025.1235 335.2303 14.28710284714371
Epoch (UTC): 11 December 2019 18:47:17
Eccentricity: 0.0049713
inclination: 71.9773°
perigee height: 760 km
apogee height: 832 km
right ascension of ascending node: 135.0662°
argument of perigee: 25.1235°
revolutions per day: 14.28710284
mean anomaly at epoch: 335.2303°
orbit number at epoch: 71437

The dashed part of the orbit path shows where the satellite is in the earth's shadow,  

DLR